Location: Deuil
(48.9767°N, 2.3272°E)
Time: 10:28:41
(UTC+00:00)

deb Delta 107 - Visible Passes

Search period start: 17 August 2022 00:00
Search period end: 27 August 2022 00:00
Orbit: 720 x 941 km, 97.7° (Epoch: 16 August)

Date Brightness Start Highest point End Pass type
(mag) Time Alt. Az. Time Alt. Az. Time Alt. Az.
17 Aug ? 02:45:26 10° E 02:49:09 18° NE 02:52:56 10° NNE visible
17 Aug ? 20:01:44 10° NNW 20:03:09 11° NW 20:04:35 10° WNW visible
18 Aug ? 02:28:59 10° E 02:31:47 14° NE 02:34:37 10° NNE visible
18 Aug ? 04:05:19 10° SSE 04:11:01 62° ENE 04:16:56 10° N visible
18 Aug ? 19:42:53 10° NNW 19:45:49 14° NW 19:48:43 10° W visible
19 Aug ? 02:13:20 10° ENE 02:14:28 11° NE 02:15:36 10° NE visible
19 Aug ? 03:47:55 10° SE 03:53:26 47° ENE 03:59:09 10° N visible
19 Aug ? 19:24:36 10° NNW 19:28:27 18° NW 19:32:12 10° W visible
20 Aug ? 03:30:38 10° SE 03:35:54 36° ENE 03:41:19 10° N visible
21 Aug ? 03:13:30 10° ESE 03:18:25 28° ENE 03:23:24 10° N visible
22 Aug ? 02:56:35 10° ESE 03:00:58 22° ENE 03:05:23 10° N visible
23 Aug ? 02:39:52 10° E 02:43:33 17° NE 02:47:16 10° NNE visible
23 Aug ? 04:17:08 10° SSE 04:23:01 78° ENE 04:29:03 10° N visible
23 Aug ? 19:56:04 10° NNW 19:57:31 11° NW 19:58:58 10° WNW visible
24 Aug ? 02:23:29 10° ENE 02:26:11 13° NE 02:28:53 10° NNE visible
24 Aug ? 03:59:36 10° SSE 04:05:24 59° ENE 04:11:18 10° N visible
24 Aug ? 19:37:15 10° NNW 19:40:11 14° NW 19:43:02 10° W visible
25 Aug ? 02:08:15 10° NE 02:08:51 10° NE 02:09:27 10° NE visible
25 Aug ? 03:42:14 10° SE 03:47:50 45° ENE 03:53:30 10° N visible
25 Aug ? 19:18:59 10° NNW 19:22:47 18° NW 19:26:28 10° W visible
26 Aug ? 03:24:59 10° SE 03:30:17 35° ENE 03:35:38 10° N visible
